Wetterdaten: Samstag, 19.06.2010
Datum Zeit Temp. a Sch. Temp. a Son. Temp. a Bod. Feuchte a. Luftdruck Regen Wind Richtung Richtung Sonnenschein Helligkeit Taupunkt Windchill
19.06.2010 00:03 12,0 C 13,2 C 13,0 C 83 % 1011 hPa 0,0 l/m 2,6 m/s (2 Bft) W45 270 0 min 0 lux 9,2 C 10,2 C
19.06.2010 00:08 11,9 C 13,1 C 12,7 C 83 % 1011 hPa 0,0 l/m 0,0 m/s (0 Bft) W 275 0 min 0 lux 9,1 C 11,9 C
19.06.2010 00:13 11,9 C 13,1 C 12,8 C 82 % 1011 hPa 0,0 l/m 1,8 m/s (2 Bft) W22.5 275 0 min 0 lux 8,9 C 11,9 C
19.06.2010 00:18 11,8 C 13,0 C 12,8 C 82 % 1011 hPa 0,0 l/m 1,8 m/s (2 Bft) W22.5 275 0 min 0 lux 8,8 C 11,8 C
19.06.2010 00:23 11,6 C 13,0 C 12,7 C 82 % 1011 hPa 0,0 l/m 1,7 m/s (2 Bft) W22.5 280 0 min 0 lux 8,6 C 11,6 C
19.06.2010 00:28 11,6 C 12,9 C 12,5 C 82 % 1011 hPa 0,0 l/m 1,4 m/s (1 Bft) W 275 0 min 0 lux 8,6 C 11,6 C
19.06.2010 00:33 11,5 C 12,8 C 12,2 C 82 % 1011 hPa 0,0 l/m 0,0 m/s (0 Bft) W 270 0 min 0 lux 8,5 C 11,5 C
19.06.2010 00:38 11,4 C 12,7 C 12,4 C 82 % 1011 hPa 0,0 l/m 1,6 m/s (1 Bft) W 275 0 min 0 lux 8,4 C 11,4 C
19.06.2010 00:43 11,1 C 12,7 C 12,2 C 82 % 1011 hPa 0,0 l/m 1,6 m/s (1 Bft) W 265 0 min 0 lux 8,1 C 11,1 C
19.06.2010 00:47 11,0 C 12,5 C 12,0 C 81 % 1011 hPa 0,0 l/m 1,6 m/s (2 Bft) W22.5 260 0 min 0 lux 7,9 C 11,0 C
19.06.2010 00:52 10,8 C 12,4 C 12,0 C 82 % 1011 hPa 0,0 l/m 2,0 m/s (2 Bft) W 265 0 min 0 lux 7,9 C 10,2 C
19.06.2010 00:57 10,7 C 12,2 C 11,8 C 81 % 1011 hPa 0,0 l/m 3,3 m/s (2 Bft) W-NW67.5 295 0 min 0 lux 7,6 C 7,3 C
19.06.2010 01:02 10,6 C 12,1 C 11,6 C 81 % 1011 hPa 0,0 l/m 1,7 m/s (2 Bft) W 265 0 min 0 lux 7,5 C 10,6 C
19.06.2010 01:07 10,6 C 11,9 C 11,5 C 80 % 1011 hPa 0,0 l/m 1,4 m/s (1 Bft) W 260 0 min 0 lux 7,3 C 10,6 C
19.06.2010 01:12 10,6 C 11,8 C 11,4 C 79 % 1011 hPa 0,0 l/m 2,9 m/s (2 Bft) W-NW22.5 285 0 min 0 lux 7,1 C 8,1 C
19.06.2010 01:17 10,6 C 11,8 C 11,6 C 78 % 1010 hPa 0,0 l/m 2,1 m/s (2 Bft) W-NW45 290 0 min 0 lux 6,9 C 9,8 C
19.06.2010 01:22 10,5 C 11,6 C 11,6 C 78 % 1011 hPa 0,0 l/m 2,5 m/s (2 Bft) W-NW22.5 285 0 min 0 lux 6,8 C 8,7 C
19.06.2010 01:27 10,4 C 11,6 C 11,5 C 78 % 1011 hPa 0,0 l/m 2,0 m/s (2 Bft) W-NW22.5 300 0 min 0 lux 6,7 C 9,9 C
19.06.2010 01:32 10,4 C 11,5 C 11,4 C 78 % 1011 hPa 0,0 l/m 3,1 m/s (2 Bft) W-NW22.5 300 0 min 0 lux 6,7 C 7,4 C
19.06.2010 01:37 10,3 C 11,4 C 11,3 C 78 % 1011 hPa 0,0 l/m 2,8 m/s (2 Bft) W22.5 275 0 min 0 lux 6,6 C 7,9 C
19.06.2010 01:42 10,3 C 11,4 C 11,2 C 77 % 1011 hPa 0,0 l/m 1,5 m/s (1 Bft) W22.5 270 0 min 0 lux 6,4 C 10,3 C
19.06.2010 01:47 10,2 C 11,3 C 11,1 C 78 % 1010 hPa 0,0 l/m 0,9 m/s (1 Bft) W 265 0 min 0 lux 6,5 C 10,2 C
19.06.2010 01:52 10,2 C 11,3 C 11,1 C 78 % 1010 hPa 0,0 l/m 1,8 m/s (2 Bft) W22.5 270 0 min 0 lux 6,5 C 10,2 C
19.06.2010 01:57 10,1 C 11,2 C 11,2 C 77 % 1010 hPa 0,0 l/m 1,7 m/s (2 Bft) W22.5 280 0 min 0 lux 6,3 C 10,1 C
19.06.2010 02:02 10,0 C 11,2 C 11,1 C 77 % 1010 hPa 0,0 l/m 1,6 m/s (1 Bft) W-NW22.5 285 0 min 0 lux 6,2 C 10,0 C
19.06.2010 02:07 10,0 C 11,1 C 10,9 C 77 % 1010 hPa 0,0 l/m 0,1 m/s (0 Bft) W 280 0 min 0 lux 6,2 C 10,0 C
19.06.2010 02:12 9,9 C 11,1 C 10,7 C 77 % 1010 hPa 0,0 l/m 1,3 m/s (1 Bft) W22.5 280 0 min 0 lux 6,1 C 9,9 C
19.06.2010 02:17 9,8 C 11,0 C 10,8 C 77 % 1010 hPa 0,0 l/m 0,0 m/s (0 Bft) W 270 0 min 0 lux 6,0 C 9,8 C
19.06.2010 02:22 9,6 C 10,9 C 10,9 C 77 % 1010 hPa 0,0 l/m 1,3 m/s (1 Bft) W 270 0 min 0 lux 5,8 C 9,6 C
19.06.2010 02:27 9,6 C 10,9 C 10,8 C 77 % 1010 hPa 0,0 l/m 1,2 m/s (1 Bft) W 270 0 min 0 lux 5,8 C 9,6 C
19.06.2010 02:32 9,6 C 10,8 C 10,8 C 77 % 1010 hPa 0,0 l/m 0,3 m/s (0 Bft) W 270 0 min 0 lux 5,8 C 9,6 C
19.06.2010 02:37 9,6 C 10,8 C 10,8 C 78 % 1010 hPa 0,0 l/m 0,0 m/s (0 Bft) W 270 0 min 0 lux 6,0 C 9,6 C
19.06.2010 02:43 9,6 C 10,8 C 10,8 C 78 % 1010 hPa 0,0 l/m 1,2 m/s (1 Bft) W 265 0 min 0 lux 6,0 C 9,6 C
19.06.2010 02:48 9,6 C 10,8 C 10,5 C 78 % 1010 hPa 0,0 l/m 1,1 m/s (1 Bft) W 265 0 min 0 lux 6,0 C 9,6 C
19.06.2010 02:53 9,6 C 10,8 C 10,5 C 78 % 1010 hPa 0,0 l/m 0,8 m/s (1 Bft) W 265 0 min 0 lux 6,0 C 9,6 C
19.06.2010 02:58 9,7 C 10,8 C 10,4 C 78 % 1010 hPa 0,0 l/m 0,0 m/s (0 Bft) W 265 0 min 0 lux 6,1 C 9,7 C
19.06.2010 03:03 9,7 C 10,8 C 10,7 C 78 % 1010 hPa 0,0 l/m 0,2 m/s (0 Bft) W 270 0 min 0 lux 6,1 C 9,7 C
19.06.2010 03:08 9,8 C 10,9 C 10,7 C 77 % 1010 hPa 0,0 l/m 0,2 m/s (0 Bft) W 260 0 min 0 lux 6,0 C 9,8 C
19.06.2010 03:13 9,8 C 10,9 C 10,7 C 77 % 1010 hPa 0,0 l/m 0,0 m/s (0 Bft) W 260 0 min 0 lux 6,0 C 9,8 C
19.06.2010 03:18 9,8 C 10,9 C 10,6 C 77 % 1010 hPa 0,0 l/m 0,0 m/s (0 Bft) W 260 0 min 0 lux 6,0 C 9,8 C
19.06.2010 03:23 9,8 C 10,9 C 10,7 C 77 % 1010 hPa 0,0 l/m 0,0 m/s (0 Bft) W 260 0 min 0 lux 6,0 C 9,8 C
19.06.2010 03:28 9,8 C 10,9 C 10,8 C 77 % 1010 hPa 0,0 l/m 0,0 m/s (0 Bft) W 260 0 min 0 lux 6,0 C 9,8 C
19.06.2010 03:33 9,8 C 10,9 C 10,7 C 77 % 1010 hPa 0,0 l/m 0,0 m/s (0 Bft) W 260 0 min 0 lux 6,0 C 9,8 C
19.06.2010 03:38 9,8 C 10,9 C 10,6 C 77 % 1010 hPa 0,0 l/m 0,0 m/s (0 Bft) W22.5 265 0 min 0 lux 6,0 C 9,8 C
19.06.2010 03:43 9,6 C 10,8 C 10,7 C 77 % 1010 hPa 0,0 l/m 0,0 m/s (0 Bft) W-SW 250 0 min 0 lux 5,8 C 9,6 C
19.06.2010 03:48 9,6 C 10,8 C 10,5 C 77 % 1010 hPa 0,0 l/m 1,0 m/s (1 Bft) W-SW 255 0 min 0 lux 5,8 C 9,6 C
19.06.2010 03:53 9,4 C 10,6 C 10,5 C 76 % 1010 hPa 0,0 l/m 1,3 m/s (1 Bft) W-SW 250 0 min 0 lux 5,4 C 9,4 C
19.06.2010 03:58 9,2 C 10,5 C 10,0 C 77 % 1010 hPa 0,0 l/m 1,7 m/s (2 Bft) W 260 0 min 0 lux 5,4 C 9,2 C
19.06.2010 04:03 9,2 C 10,5 C 10,0 C 77 % 1010 hPa 0,0 l/m 0,9 m/s (1 Bft) W 260 0 min 0 lux 5,4 C 9,2 C
19.06.2010 04:08 9,1 C 10,4 C 10,1 C 78 % 1010 hPa 0,0 l/m 0,0 m/s (0 Bft) W 260 0 min 0 lux 5,5 C 9,1 C
19.06.2010 04:13 8,9 C 10,3 C 10,0 C 78 % 1010 hPa 0,0 l/m 0,0 m/s (0 Bft) W 260 0 min 0 lux 5,3 C 8,9 C
19.06.2010 04:18 8,9 C 10,3 C 10,1 C 78 % 1010 hPa 0,0 l/m 0,4 m/s (1 Bft) W22.5 265 0 min 0 lux 5,3 C 8,9 C
19.06.2010 04:23 9,0 C 10,3 C 10,1 C 78 % 1010 hPa 0,0 l/m 0,1 m/s (0 Bft) W 280 0 min 0 lux 5,4 C 9,0 C
19.06.2010 04:28 9,1 C 10,3 C 10,0 C 78 % 1010 hPa 0,0 l/m 0,0 m/s (0 Bft) W 280 0 min 0 lux 5,5 C 9,1 C
19.06.2010 04:33 9,1 C 10,3 C 9,7 C 77 % 1010 hPa 0,0 l/m 0,0 m/s (0 Bft) W 280 0 min 0 lux 5,3 C 9,1 C
19.06.2010 04:38 9,1 C 10,2 C 9,7 C 78 % 1010 hPa 0,0 l/m 0,0 m/s (0 Bft) W 280 0 min 0 lux 5,5 C 9,1 C
19.06.2010 04:43 9,1 C 10,2 C 10,0 C 78 % 1010 hPa 0,0 l/m 0,0 m/s (0 Bft) W 280 0 min 0 lux 5,5 C 9,1 C
19.06.2010 04:48 9,1 C 10,3 C 10,0 C 77 % 1010 hPa 0,0 l/m 0,9 m/s (1 Bft) W 280 0 min 0 lux 5,3 C 9,1 C
19.06.2010 04:53 9,2 C 10,3 C 10,1 C 77 % 1010 hPa 0,0 l/m 0,9 m/s (1 Bft) W 280 0 min 0 lux 5,4 C 9,2 C
19.06.2010 04:58 9,3 C 10,3 C 10,1 C 76 % 1010 hPa 0,0 l/m 1,2 m/s (1 Bft) W22.5 280 0 min 49 lux 5,3 C 9,3 C
19.06.2010 05:03 9,3 C 10,3 C 10,1 C 76 % 1010 hPa 0,0 l/m 1,4 m/s (1 Bft) W 270 0 min 108 lux 5,3 C 9,3 C
19.06.2010 05:08 9,3 C 10,3 C 10,0 C 76 % 1010 hPa 0,0 l/m 1,1 m/s (1 Bft) W22.5 270 0 min 182 lux 5,3 C 9,3 C
19.06.2010 05:13 9,3 C 10,2 C 10,1 C 77 % 1010 hPa 0,0 l/m 2,4 m/s (2 Bft) W22.5 270 0 min 254 lux 5,5 C 7,7 C
19.06.2010 05:18 9,2 C 10,2 C 10,1 C 77 % 1010 hPa 0,0 l/m 1,3 m/s (1 Bft) W22.5 265 0 min 280 lux 5,4 C 9,2 C
19.06.2010 05:23 9,2 C 10,2 C 10,0 C 77 % 1010 hPa 0,0 l/m 2,7 m/s (2 Bft) W-SW22.5 240 0 min 438 lux 5,4 C 6,9 C
19.06.2010 05:28 9,2 C 10,2 C 10,1 C 78 % 1010 hPa 0,0 l/m 1,3 m/s (1 Bft) SW22.5 235 0 min 507 lux 5,6 C 9,2 C
19.06.2010 05:33 9,2 C 10,2 C 10,1 C 78 % 1010 hPa 0,0 l/m 1,9 m/s (2 Bft) W-SW22.5 250 0 min 707 lux 5,6 C 9,0 C
19.06.2010 05:38 9,2 C 10,2 C 10,1 C 78 % 1010 hPa 0,0 l/m 1,3 m/s (1 Bft) W-SW22.5 250 0 min 972 lux 5,6 C 9,2 C
19.06.2010 05:43 9,2 C 10,2 C 10,1 C 78 % 1010 hPa 0,0 l/m 1,9 m/s (2 Bft) W22.5 260 0 min 1,50 klux 5,6 C 8,8 C
19.06.2010 05:48 9,2 C 10,2 C 10,2 C 78 % 1010 hPa 0,0 l/m 2,5 m/s (2 Bft) W-SW22.5 250 0 min 2,11 klux 5,6 C 7,4 C
19.06.2010 05:53 9,3 C 10,2 C 10,2 C 77 % 1010 hPa 0,0 l/m 1,6 m/s (2 Bft) W-SW22.5 245 0 min 2,48 klux 5,5 C 9,3 C
19.06.2010 05:58 9,3 C 10,2 C 10,2 C 77 % 1010 hPa 0,0 l/m 1,8 m/s (2 Bft) W-SW22.5 240 0 min 2,91 klux 5,5 C 9,3 C
19.06.2010 06:03 9,3 C 10,2 C 10,2 C 76 % 1010 hPa 0,0 l/m 1,4 m/s (1 Bft) W-SW22.5 245 0 min 3,51 klux 5,3 C 9,3 C
19.06.2010 06:08 9,4 C 10,2 C 10,2 C 77 % 1010 hPa 0,0 l/m 1,5 m/s (1 Bft) W-SW22.5 250 0 min 4,11 klux 5,6 C 9,4 C
19.06.2010 06:13 9,4 C 10,3 C 10,3 C 77 % 1010 hPa 0,0 l/m 2,1 m/s (2 Bft) W45 260 0 min 4,63 klux 5,6 C 8,6 C
19.06.2010 06:18 9,5 C 10,3 C 10,2 C 76 % 1010 hPa 0,0 l/m 1,9 m/s (2 Bft) W22.5 260 0 min 4,44 klux 5,5 C 9,1 C
19.06.2010 06:23 9,5 C 10,3 C 10,2 C 76 % 1010 hPa 0,0 l/m 1,2 m/s (1 Bft) W-SW 250 0 min 4,29 klux 5,5 C 9,5 C
19.06.2010 06:28 9,4 C 10,3 C 10,2 C 76 % 1010 hPa 0,0 l/m 2,1 m/s (2 Bft) W-SW22.5 250 0 min 2,38 klux 5,4 C 8,7 C
19.06.2010 06:33 9,4 C 10,3 C 10,0 C 76 % 1010 hPa 0,0 l/m 3,5 m/s (3 Bft) W-SW22.5 255 0 min 1,99 klux 5,4 C 5,5 C
19.06.2010 06:38 9,4 C 10,3 C 10,2 C 77 % 1010 hPa 0,0 l/m 2,3 m/s (2 Bft) W45 260 0 min 2,76 klux 5,6 C 8,2 C
19.06.2010 06:43 9,4 C 10,3 C 10,2 C 77 % 1010 hPa 0,0 l/m 2,3 m/s (2 Bft) W22.5 270 0 min 4,71 klux 5,6 C 8,0 C
19.06.2010 06:48 9,4 C 10,3 C 10,2 C 77 % 1010 hPa 0,0 l/m 2,3 m/s (2 Bft) W22.5 270 0 min 4,80 klux 5,6 C 8,0 C
19.06.2010 06:53 9,4 C 10,3 C 10,2 C 76 % 1009 hPa 0,0 l/m 3,4 m/s (2 Bft) W-NW22.5 290 0 min 5,54 klux 5,4 C 5,8 C
19.06.2010 06:58 9,5 C 10,4 C 10,2 C 76 % 1009 hPa 0,0 l/m 3,3 m/s (2 Bft) W22.5 280 0 min 6,77 klux 5,5 C 6,0 C
19.06.2010 07:03 9,5 C 10,4 C 10,3 C 76 % 1009 hPa 0,0 l/m 2,7 m/s (2 Bft) W-SW22.5 245 0 min 7,20 klux 5,5 C 7,2 C
19.06.2010 07:07 9,6 C 10,4 C 10,3 C 75 % 1009 hPa 0,0 l/m 3,9 m/s (3 Bft) W22.5 265 0 min 7,46 klux 5,4 C 5,0 C
19.06.2010 07:12 9,6 C 10,5 C 10,4 C 76 % 1009 hPa 0,0 l/m 0,2 m/s (0 Bft) W-SW45 255 0 min 7,70 klux 5,6 C 9,6 C
19.06.2010 07:17 9,7 C 10,5 C 10,3 C 75 % 1009 hPa 0,0 l/m 3,3 m/s (2 Bft) W22.5 265 0 min 7,32 klux 5,5 C 6,3 C
19.06.2010 07:22 9,7 C 10,5 C 10,2 C 75 % 1009 hPa 0,0 l/m 4,5 m/s (3 Bft) W22.5 265 0 min 6,44 klux 5,5 C 4,2 C
19.06.2010 07:27 9,6 C 10,5 C 10,2 C 75 % 1009 hPa 0,0 l/m 3,1 m/s (2 Bft) W45 270 0 min 7,02 klux 5,4 C 6,4 C
19.06.2010 07:32 9,6 C 10,5 C 10,4 C 74 % 1009 hPa 0,0 l/m 2,9 m/s (2 Bft) W22.5 275 0 min 10,0 klux 5,2 C 6,8 C
19.06.2010 07:37 9,8 C 10,6 C 10,6 C 74 % 1009 hPa 0,0 l/m 2,5 m/s (2 Bft) W-SW22.5 255 0 min 13,2 klux 5,4 C 8,0 C
19.06.2010 07:42 10,0 C 10,7 C 10,6 C 73 % 1009 hPa 0,0 l/m 2,5 m/s (2 Bft) W-SW22.5 255 0 min 12,8 klux 5,4 C 8,3 C
19.06.2010 07:47 10,0 C 10,7 C 10,6 C 74 % 1009 hPa 0,0 l/m 4,0 m/s (3 Bft) W22.5 275 0 min 12,3 klux 5,6 C 5,4 C
19.06.2010 07:52 10,0 C 10,8 C 10,7 C 73 % 1009 hPa 0,0 l/m 2,4 m/s (2 Bft) W45 270 0 min 12,2 klux 5,4 C 8,5 C
19.06.2010 07:57 10,0 C 10,8 C 10,5 C 73 % 1009 hPa 0,0 l/m 4,4 m/s (3 Bft) W45 280 0 min 14,2 klux 5,4 C 4,8 C
19.06.2010 08:02 10,1 C 10,8 C 10,7 C 72 % 1009 hPa 0,0 l/m 5,1 m/s (3 Bft) W-NW22.5 285 0 min 12,5 klux 5,3 C 3,9 C
19.06.2010 08:07 10,0 C 10,8 C 10,6 C 72 % 1009 hPa 0,0 l/m 3,8 m/s (3 Bft) W45 275 0 min 12,1 klux 5,2 C 5,7 C
19.06.2010 08:12 10,0 C 10,8 C 10,5 C 72 % 1009 hPa 0,0 l/m 3,0 m/s (2 Bft) W45 270 0 min 10,0 klux 5,2 C 7,1 C
19.06.2010 08:17 10,0 C 10,8 C 10,8 C 73 % 1009 hPa 0,0 l/m 3,4 m/s (3 Bft) W45 260 0 min 10,5 klux 5,4 C 6,4 C
19.06.2010 08:22 10,1 C 10,9 C 10,8 C 73 % 1009 hPa 0,0 l/m 3,2 m/s (2 Bft) W-NW22.5 285 0 min 10,9 klux 5,5 C 6,8 C
19.06.2010 08:27 10,0 C 11,0 C 10,7 C 72 % 1009 hPa 0,0 l/m 4,2 m/s (3 Bft) W45 275 0 min 11,8 klux 5,2 C 5,1 C
19.06.2010 08:32 10,0 C 11,0 C 10,7 C 72 % 1009 hPa 0,0 l/m 3,0 m/s (2 Bft) W-NW22.5 285 0 min 10,9 klux 5,2 C 7,1 C
19.06.2010 08:37 10,1 C 11,0 C 10,8 C 72 % 1009 hPa 0,0 l/m 3,9 m/s (3 Bft) W-NW45 285 0 min 11,3 klux 5,3 C 5,7 C
19.06.2010 08:42 10,2 C 11,1 C 11,0 C 72 % 1009 hPa 0,0 l/m 2,5 m/s (2 Bft) W45 260 0 min 15,3 klux 5,4 C 8,4 C
19.06.2010 08:48 10,4 C 11,2 C 11,0 C 73 % 1009 hPa 0,0 l/m 2,8 m/s (2 Bft) W-NW45 295 0 min 16,3 klux 5,8 C 8,0 C
19.06.2010 08:53 10,5 C 11,2 C 11,1 C 70 % 1009 hPa 0,0 l/m 2,8 m/s (2 Bft) W22.5 270 0 min 22,0 klux 5,3 C 8,2 C
19.06.2010 08:58 10,5 C 11,5 C 11,4 C 70 % 1009 hPa 0,0 l/m 2,4 m/s (2 Bft) W22.5 280 0 min 26,8 klux 5,3 C 9,1 C
19.06.2010 09:03 11,2 C 11,6 C 11,8 C 69 % 1009 hPa 0,0 l/m 2,2 m/s (2 Bft) W22.5 275 0 min 31,9 klux 5,7 C 10,2 C
19.06.2010 09:08 11,7 C 11,8 C 12,6 C 67 % 1009 hPa 0,0 l/m 2,8 m/s (2 Bft) W-NW22.5 285 5 min 45,3 klux 5,8 C 9,5 C
19.06.2010 09:13 11,8 C 12,0 C 12,2 C 67 % 1009 hPa 0,0 l/m 4,4 m/s (3 Bft) W-NW22.5 295 0 min 33,5 klux 5,9 C 6,9 C
19.06.2010 09:17 11,6 C 12,2 C 12,0 C 67 % 1009 hPa 0,0 l/m 2,7 m/s (2 Bft) W22.5 260 0 min 26,7 klux 5,7 C 9,5 C
19.06.2010 09:22 11,6 C 12,2 C 12,3 C 67 % 1009 hPa 0,0 l/m 3,7 m/s (3 Bft) NW45 310 0 min 26,6 klux 5,7 C 7,7 C
19.06.2010 09:27 11,7 C 12,4 C 12,5 C 67 % 1009 hPa 0,0 l/m 3,6 m/s (3 Bft) W-NW45 295 0 min 29,0 klux 5,8 C 8,0 C
19.06.2010 09:33 11,7 C 12,4 C 12,3 C 66 % 1009 hPa 0,0 l/m 3,4 m/s (3 Bft) W22.5 275 0 min 31,1 klux 5,6 C 8,3 C
19.06.2010 09:38 11,4 C 12,5 C 12,2 C 67 % 1009 hPa 0,0 l/m 4,5 m/s (3 Bft) W-NW45 290 0 min 23,7 klux 5,5 C 6,3 C
19.06.2010 09:43 11,2 C 12,4 C 12,6 C 70 % 1009 hPa 0,0 l/m 4,2 m/s (3 Bft) W22.5 280 0 min 26,7 klux 5,9 C 6,5 C
19.06.2010 09:48 11,2 C 12,5 C 12,8 C 70 % 1009 hPa 0,0 l/m 2,4 m/s (2 Bft) W-SW22.5 250 0 min 30,8 klux 5,9 C 9,8 C
19.06.2010 09:53 11,8 C 12,5 C 13,3 C 69 % 1009 hPa 0,0 l/m 2,4 m/s (2 Bft) W45 265 5 min 77,9 klux 6,3 C 10,3 C
19.06.2010 09:58 12,4 C 12,5 C 14,1 C 69 % 1009 hPa 0,0 l/m 2,3 m/s (2 Bft) W45 280 0 min 44,8 klux 6,9 C 11,2 C
19.06.2010 10:02 12,9 C 13,2 C 15,6 C 67 % 1009 hPa 0,0 l/m 1,6 m/s (2 Bft) W-SW22.5 250 4 min 83,7 klux 6,9 C 12,9 C
19.06.2010 10:07 13,6 C 13,6 C 14,8 C 66 % 1009 hPa 0,0 l/m 2,0 m/s (2 Bft) W-NW45 295 0 min 52,7 klux 7,4 C 13,2 C
19.06.2010 10:12 13,6 C 13,7 C 14,0 C 62 % 1008 hPa 0,0 l/m 3,3 m/s (2 Bft) W-NW45 295 0 min 48,1 klux 6,5 C 10,7 C
19.06.2010 10:18 12,7 C 13,6 C 13,6 C 61 % 1009 hPa 0,0 l/m 4,8 m/s (3 Bft) NW45 310 0 min 23,4 klux 5,4 C 7,7 C
19.06.2010 10:23 12,3 C 13,3 C 13,3 C 61 % 1009 hPa 0,0 l/m 4,4 m/s (3 Bft) NW22.5 315 0 min 17,1 klux 5,0 C 7,6 C
19.06.2010 10:28 11,7 C 13,2 C 13,6 C 64 % 1009 hPa 0,0 l/m 4,8 m/s (3 Bft) NW22.5 305 0 min 12,6 klux 5,1 C 6,4 C
19.06.2010 10:33 11,3 C 12,9 C 13,2 C 67 % 1009 hPa 0,0 l/m 5,4 m/s (3 Bft) NW22.5 305 0 min 10,9 klux 5,4 C 5,2 C
19.06.2010 10:38 11,3 C 12,8 C 13,4 C 68 % 1009 hPa 0,0 l/m 0,2 m/s (0 Bft) W 270 0 min 13,9 klux 5,6 C 11,3 C
19.06.2010 10:43 11,5 C 12,8 C 12,9 C 69 % 1009 hPa 0,0 l/m 0,1 m/s (0 Bft) W-SW 250 0 min 16,3 klux 6,0 C 11,5 C
19.06.2010 10:48 11,8 C 12,8 C 13,6 C 66 % 1009 hPa 0,0 l/m 0,2 m/s (0 Bft) W-SW 250 0 min 19,1 klux 5,7 C 11,8 C
19.06.2010 10:53 11,9 C 12,8 C 14,0 C 65 % 1009 hPa 0,0 l/m 3,2 m/s (2 Bft) W45 280 0 min 34,2 klux 5,5 C 8,9 C
19.06.2010 10:58 12,3 C 13,0 C 13,9 C 66 % 1008 hPa 0,0 l/m 2,0 m/s (2 Bft) W-NW22.5 285 0 min 38,1 klux 6,1 C 11,8 C
19.06.2010 11:03 12,7 C 13,1 C 14,4 C 63 % 1008 hPa 0,0 l/m 4,1 m/s (3 Bft) W45 260 0 min 53,3 klux 5,8 C 8,5 C
19.06.2010 11:08 12,9 C 13,8 C 15,2 C 63 % 1008 hPa 0,0 l/m 7,7 m/s (4 Bft) W-NW45 300 5 min 119 klux 6,0 C 5,2 C
19.06.2010 11:13 13,7 C 14,6 C 15,6 C 60 % 1008 hPa 0,0 l/m 5,6 m/s (4 Bft) W-NW45 300 5 min 88,4 klux 6,1 C 8,0 C
19.06.2010 11:18 13,8 C 14,9 C 15,4 C 59 % 1008 hPa 0,0 l/m 3,0 m/s (2 Bft) W-NW22.5 285 0 min 20,2 klux 5,9 C 11,5 C
19.06.2010 11:23 13,0 C 14,8 C 14,2 C 60 % 1008 hPa 0,0 l/m 4,3 m/s (3 Bft) W45 265 0 min 10,3 klux 5,4 C 8,7 C
19.06.2010 11:28 12,5 C 14,5 C 14,2 C 60 % 1008 hPa 0,0 l/m 5,6 m/s (4 Bft) W-NW22.5 300 0 min 14,5 klux 5,0 C 6,5 C
19.06.2010 11:33 12,2 C 13,9 C 14,5 C 61 % 1009 hPa 0,0 l/m 3,8 m/s (3 Bft) W-NW45 290 0 min 19,0 klux 4,9 C 8,3 C
19.06.2010 11:38 12,2 C 13,9 C 14,4 C 60 % 1009 hPa 0,0 l/m 3,9 m/s (3 Bft) W45 270 0 min 23,1 klux 4,7 C 8,2 C
19.06.2010 11:43 12,5 C 13,9 C 14,4 C 61 % 1009 hPa 0,0 l/m 4,1 m/s (3 Bft) W45 265 0 min 29,9 klux 5,2 C 8,2 C
19.06.2010 11:47 12,6 C 13,8 C 14,6 C 63 % 1009 hPa 0,0 l/m 4,7 m/s (3 Bft) W-NW45 285 0 min 28,5 klux 5,7 C 7,6 C
19.06.2010 11:52 12,5 C 13,9 C 14,4 C 62 % 1009 hPa 0,0 l/m 4,8 m/s (3 Bft) W45 265 0 min 26,6 klux 5,4 C 7,3 C
19.06.2010 11:57 12,5 C 14,0 C 14,4 C 62 % 1009 hPa 0,0 l/m 3,5 m/s (3 Bft) W22.5 275 0 min 22,1 klux 5,4 C 9,1 C
19.06.2010 12:02 12,6 C 13,8 C 14,4 C 63 % 1009 hPa 0,0 l/m 4,1 m/s (3 Bft) W-NW45 285 0 min 27,6 klux 5,7 C 8,4 C
19.06.2010 12:07 12,7 C 13,9 C 14,3 C 63 % 1009 hPa 0,0 l/m 3,4 m/s (3 Bft) W22.5 265 0 min 27,0 klux 5,8 C 9,4 C
19.06.2010 12:12 12,8 C 13,9 C 14,3 C 63 % 1009 hPa 0,0 l/m 2,9 m/s (2 Bft) W22.5 260 0 min 26,6 klux 5,9 C 10,4 C
19.06.2010 12:17 13,0 C 13,8 C 14,3 C 61 % 1009 hPa 0,0 l/m 4,4 m/s (3 Bft) W-NW22.5 285 0 min 30,0 klux 5,7 C 8,5 C
19.06.2010 12:22 12,8 C 13,8 C 14,5 C 60 % 1009 hPa 0,0 l/m 6,1 m/s (4 Bft) W-NW22.5 290 0 min 31,8 klux 5,2 C 6,4 C
19.06.2010 12:27 13,0 C 13,8 C 14,6 C 59 % 1009 hPa 0,0 l/m 4,1 m/s (3 Bft) W-NW45 285 0 min 31,8 klux 5,2 C 8,9 C
19.06.2010 12:32 13,2 C 13,8 C 14,8 C 61 % 1008 hPa 0,0 l/m 3,1 m/s (2 Bft) W-NW45 285 0 min 48,0 klux 5,8 C 10,5 C
19.06.2010 12:37 14,0 C 14,4 C 15,5 C 58 % 1008 hPa 0,0 l/m 2,9 m/s (2 Bft) W22.5 270 0 min 66,8 klux 5,9 C 11,8 C
19.06.2010 12:42 15,0 C 15,1 C 16,5 C 57 % 1008 hPa 0,0 l/m 2,9 m/s (2 Bft) W-SW22.5 240 5 min 141 klux 6,6 C 12,9 C
19.06.2010 12:47 15,2 C 15,9 C 16,2 C 55 % 1008 hPa 0,0 l/m 5,8 m/s (4 Bft) W-SW67.5 255 5 min 92,7 klux 6,2 C 9,8 C
19.06.2010 12:52 16,0 C 16,5 C 17,4 C 55 % 1008 hPa 0,0 l/m 4,5 m/s (3 Bft) W-SW67.5 240 5 min 112 klux 7,0 C 12,0 C
19.06.2010 12:57 15,9 C 16,9 C 17,2 C 54 % 1008 hPa 0,0 l/m 3,6 m/s (3 Bft) W45 270 0 min 62,8 klux 6,6 C 13,0 C
19.06.2010 13:02 15,5 C 16,9 C 16,9 C 54 % 1008 hPa 0,0 l/m 4,0 m/s (3 Bft) W45 265 0 min 55,9 klux 6,2 C 12,0 C
19.06.2010 13:07 15,0 C 16,7 C 16,6 C 55 % 1008 hPa 0,0 l/m 4,1 m/s (3 Bft) W45 270 0 min 49,2 klux 6,0 C 11,3 C
19.06.2010 13:12 14,7 C 17,0 C 17,8 C 56 % 1008 hPa 0,0 l/m 4,9 m/s (3 Bft) W22.5 275 5 min 115 klux 6,0 C 10,0 C
19.06.2010 13:17 15,2 C 17,5 C 17,8 C 55 % 1008 hPa 0,0 l/m 5,3 m/s (3 Bft) W-NW45 285 5 min 112 klux 6,2 C 10,2 C
19.06.2010 13:22 15,3 C 18,8 C 18,0 C 51 % 1008 hPa 0,0 l/m 4,9 m/s (3 Bft) W67.5 275 5 min 112 klux 5,2 C 10,7 C
19.06.2010 13:27 15,6 C 19,2 C 18,2 C 54 % 1008 hPa 0,0 l/m 2,9 m/s (2 Bft) W-SW 250 5 min 110 klux 6,3 C 13,6 C
19.06.2010 13:32 16,1 C 20,5 C 19,4 C 49 % 1008 hPa 0,0 l/m 6,1 m/s (4 Bft) W45 260 5 min 121 klux 5,4 C 10,8 C
19.06.2010 13:37 16,2 C 20,4 C 18,9 C 49 % 1008 hPa 0,0 l/m 5,0 m/s (3 Bft) W-SW45 245 5 min 123 klux 5,5 C 11,8 C
19.06.2010 13:43 16,4 C 20,2 C 19,7 C 49 % 1008 hPa 0,0 l/m 6,0 m/s (4 Bft) W-SW67.5 250 6 min 118 klux 5,7 C 11,2 C
19.06.2010 13:48 15,6 C 19,2 C 18,8 C 48 % 1008 hPa 0,0 l/m 8,7 m/s (5 Bft) W-NW45 300 0 min 49,2 klux 4,6 C 8,3 C
19.06.2010 13:53 15,6 C 19,5 C 20,5 C 48 % 1008 hPa 0,0 l/m 4,8 m/s (3 Bft) W-NW45 290 5 min 122 klux 4,6 C 11,2 C
19.06.2010 13:58 16,6 C 20,3 C 20,5 C 48 % 1008 hPa 0,0 l/m 5,9 m/s (4 Bft) W-NW45 285 5 min 126 klux 5,5 C 11,5 C
19.06.2010 14:03 17,0 C 20,8 C 20,8 C 47 % 1008 hPa 0,0 l/m 8,3 m/s (5 Bft) W45 270 5 min 124 klux 5,6 C 10,5 C
19.06.2010 14:08 16,7 C 20,6 C 19,9 C 45 % 1008 hPa 0,0 l/m 6,5 m/s (4 Bft) W-NW67.5 295 0 min 29,1 klux 4,7 C 11,2 C
19.06.2010 14:13 15,5 C 19,5 C 19,8 C 50 % 1008 hPa 0,0 l/m 6,2 m/s (4 Bft) W-NW45 300 0 min 20,2 klux 5,1 C 9,9 C
19.06.2010 14:18 14,2 C 18,6 C 18,1 C 56 % 1008 hPa 0,0 l/m 8,9 m/s (5 Bft) W-NW45 290 0 min 23,0 klux 5,6 C 6,2 C
19.06.2010 14:23 13,7 C 17,7 C 18,4 C 56 % 1008 hPa 0,0 l/m 5,1 m/s (3 Bft) W22.5 270 0 min 29,8 klux 5,1 C 8,5 C
19.06.2010 14:28 13,8 C 17,7 C 19,1 C 58 % 1008 hPa 0,0 l/m 6,8 m/s (4 Bft) W-NW45 285 0 min 42,0 klux 5,7 C 7,1 C
19.06.2010 14:33 14,5 C 17,4 C 19,6 C 57 % 1008 hPa 0,0 l/m 3,8 m/s (3 Bft) W-NW22.5 285 0 min 56,0 klux 6,1 C 11,1 C
19.06.2010 14:38 15,5 C 17,8 C 19,5 C 52 % 1008 hPa 0,0 l/m 3,9 m/s (3 Bft) W-NW45 290 5 min 80,4 klux 5,7 C 12,1 C
19.06.2010 14:43 15,5 C 18,0 C 18,7 C 50 % 1008 hPa 0,0 l/m 6,4 m/s (4 Bft) W22.5 265 0 min 59,1 klux 5,1 C 9,7 C
19.06.2010 14:48 15,1 C 17,8 C 18,8 C 53 % 1008 hPa 0,0 l/m 5,4 m/s (3 Bft) W45 275 0 min 38,7 klux 5,6 C 10,0 C
19.06.2010 14:53 14,3 C 17,0 C 17,9 C 54 % 1008 hPa 0,0 l/m 8,2 m/s (5 Bft) W-NW45 285 0 min 22,7 klux 5,1 C 6,8 C
19.06.2010 14:58 14,2 C 17,0 C 18,2 C 56 % 1008 hPa 0,0 l/m 7,0 m/s (4 Bft) W-NW45 285 0 min 20,8 klux 5,6 C 7,5 C
19.06.2010 15:03 14,2 C 16,6 C 18,3 C 57 % 1008 hPa 0,0 l/m 4,5 m/s (3 Bft) W-NW22.5 300 0 min 26,3 klux 5,8 C 9,9 C
19.06.2010 15:08 14,0 C 16,3 C 17,1 C 58 % 1008 hPa 0,0 l/m 10,4 m/s (5 Bft) W-NW45 290 0 min 37,1 klux 5,9 C 5,2 C
19.06.2010 15:13 13,6 C 15,9 C 16,9 C 61 % 1008 hPa 0,0 l/m 7,3 m/s (4 Bft) W45 275 0 min 43,3 klux 6,2 C 6,4 C
19.06.2010 15:18 13,6 C 15,8 C 17,0 C 61 % 1008 hPa 0,0 l/m 5,7 m/s (4 Bft) W-NW45 290 0 min 44,5 klux 6,2 C 7,8 C
19.06.2010 15:23 13,7 C 15,6 C 17,3 C 59 % 1008 hPa 0,0 l/m 6,8 m/s (4 Bft) W-NW22.5 290 0 min 48,8 klux 5,8 C 6,9 C
19.06.2010 15:28 13,8 C 16,0 C 17,2 C 59 % 1008 hPa 0,0 l/m 5,6 m/s (4 Bft) W45 270 0 min 62,6 klux 5,9 C 8,1 C
19.06.2010 15:33 14,0 C 16,4 C 17,0 C 60 % 1008 hPa 0,0 l/m 6,6 m/s (4 Bft) W45 265 5 min 98,4 klux 6,4 C 7,6 C
19.06.2010 15:38 14,4 C 17,8 C 17,3 C 59 % 1008 hPa 0,0 l/m 6,4 m/s (4 Bft) W22.5 260 5 min 104 klux 6,5 C 8,2 C
19.06.2010 15:43 15,2 C 19,1 C 17,1 C 57 % 1008 hPa 0,0 l/m 5,4 m/s (3 Bft) W-SW22.5 250 5 min 108 klux 6,7 C 10,2 C
19.06.2010 15:48 15,8 C 20,0 C 17,8 C 54 % 1008 hPa 0,0 l/m 4,8 m/s (3 Bft) W-SW22.5 250 5 min 113 klux 6,5 C 11,5 C
19.06.2010 15:53 16,7 C 20,3 C 18,0 C 53 % 1008 hPa 0,0 l/m 3,9 m/s (3 Bft) W-SW45 245 5 min 119 klux 7,1 C 13,6 C
19.06.2010 15:58 16,1 C 19,6 C 17,9 C 52 % 1008 hPa 0,0 l/m 4,9 m/s (3 Bft) W-SW45 250 0 min 38,5 klux 6,2 C 11,8 C
19.06.2010 16:03 15,8 C 18,5 C 17,8 C 53 % 1008 hPa 0,0 l/m 5,4 m/s (3 Bft) W45 265 0 min 38,2 klux 6,2 C 11,0 C
19.06.2010 16:08 15,5 C 18,2 C 17,6 C 53 % 1008 hPa 0,0 l/m 3,0 m/s (2 Bft) W45 270 0 min 33,3 klux 6,0 C 13,4 C
19.06.2010 16:13 14,7 C 17,9 C 17,3 C 58 % 1008 hPa 0,0 l/m 4,9 m/s (3 Bft) W45 270 0 min 23,9 klux 6,5 C 10,0 C
19.06.2010 16:18 14,6 C 17,3 C 17,3 C 61 % 1008 hPa 0,0 l/m 3,8 m/s (3 Bft) W-SW22.5 245 5 min 92,7 klux 7,2 C 11,2 C
19.06.2010 16:23 14,9 C 18,0 C 17,2 C 59 % 1008 hPa 0,0 l/m 5,3 m/s (3 Bft) W22.5 270 5 min 94,6 klux 7,0 C 9,8 C
19.06.2010 16:28 15,3 C 19,8 C 17,1 C 55 % 1008 hPa 0,0 l/m 4,3 m/s (3 Bft) W45 265 5 min 57,6 klux 6,3 C 11,4 C
19.06.2010 16:33 15,7 C 20,0 C 17,1 C 56 % 1008 hPa 0,0 l/m 5,3 m/s (3 Bft) W45 265 0 min 31,1 klux 6,9 C 10,9 C
19.06.2010 16:38 15,6 C 20,4 C 16,9 C 54 % 1008 hPa 0,0 l/m 7,1 m/s (4 Bft) W45 275 0 min 33,5 klux 6,3 C 9,3 C
19.06.2010 16:43 15,4 C 19,5 C 16,6 C 55 % 1008 hPa 0,0 l/m 6,3 m/s (4 Bft) W45 265 0 min 27,3 klux 6,4 C 9,7 C
19.06.2010 16:48 15,4 C 18,6 C 16,9 C 55 % 1008 hPa 0,0 l/m 4,3 m/s (3 Bft) W-NW45 285 0 min 40,4 klux 6,4 C 11,5 C
19.06.2010 16:53 15,2 C 18,3 C 16,9 C 56 % 1008 hPa 0,0 l/m 4,8 m/s (3 Bft) W45 280 0 min 29,9 klux 6,5 C 10,7 C
19.06.2010 16:58 15,2 C 18,3 C 17,4 C 55 % 1008 hPa 0,0 l/m 3,7 m/s (3 Bft) W-SW45 240 0 min 35,6 klux 6,2 C 12,0 C
19.06.2010 17:03 15,0 C 18,0 C 17,0 C 56 % 1008 hPa 0,0 l/m 3,7 m/s (3 Bft) W-SW45 240 0 min 22,8 klux 6,3 C 11,8 C
19.06.2010 17:08 14,4 C 17,3 C 16,3 C 57 % 1008 hPa 0,0 l/m 9,8 m/s (5 Bft) W-NW22.5 285 0 min 18,2 klux 6,0 C 6,0 C
19.06.2010 17:13 14,0 C 16,4 C 15,1 C 60 % 1008 hPa 0,0 l/m 7,0 m/s (4 Bft) NW45 315 0 min 12,5 klux 6,4 C 7,2 C
19.06.2010 17:17 12,8 C 15,9 C 14,7 C 68 % 1008 hPa 0,0 l/m 7,4 m/s (4 Bft) W-NW45 300 0 min 12,2 klux 7,0 C 5,3 C
19.06.2010 17:22 12,0 C 15,3 C 14,1 C 70 % 1008 hPa 0,0 l/m 4,6 m/s (3 Bft) W-NW22.5 285 0 min 15,3 klux 6,7 C 7,0 C
19.06.2010 17:27 12,0 C 15,0 C 14,5 C 70 % 1008 hPa 0,0 l/m 4,1 m/s (3 Bft) W22.5 270 0 min 20,1 klux 6,7 C 7,7 C
19.06.2010 17:33 12,3 C 15,0 C 15,2 C 71 % 1008 hPa 0,0 l/m 3,7 m/s (3 Bft) W22.5 270 6 min 57,1 klux 7,2 C 8,6 C
19.06.2010 17:38 12,7 C 15,4 C 15,3 C 69 % 1008 hPa 0,0 l/m 3,0 m/s (2 Bft) W22.5 270 0 min 28,3 klux 7,2 C 10,2 C
19.06.2010 17:43 12,8 C 15,3 C 15,2 C 68 % 1008 hPa 0,0 l/m 7,2 m/s (4 Bft) W-NW22.5 295 0 min 23,3 klux 7,0 C 5,4 C
19.06.2010 17:48 13,2 C 15,8 C 15,1 C 66 % 1008 hPa 0,0 l/m 5,0 m/s (3 Bft) W45 280 5 min 59,5 klux 7,0 C 8,0 C
19.06.2010 17:53 13,2 C 15,7 C 15,0 C 66 % 1008 hPa 0,0 l/m 5,7 m/s (4 Bft) W-NW22.5 285 0 min 26,7 klux 7,0 C 7,3 C
19.06.2010 17:58 13,1 C 15,4 C 15,1 C 65 % 1008 hPa 0,0 l/m 4,1 m/s (3 Bft) W-NW22.5 290 0 min 30,3 klux 6,7 C 9,0 C
19.06.2010 18:03 13,0 C 15,0 C 14,6 C 63 % 1008 hPa 0,0 l/m 9,8 m/s (5 Bft) W45 275 0 min 19,4 klux 6,1 C 4,0 C
19.06.2010 18:07 12,9 C 14,9 C 14,3 C 62 % 1008 hPa 0,0 l/m 9,5 m/s (5 Bft) W45 280 0 min 21,6 klux 5,8 C 4,0 C
19.06.2010 18:12 12,9 C 14,6 C 14,4 C 60 % 1008 hPa 0,0 l/m 5,6 m/s (4 Bft) W45 270 5 min 39,2 klux 5,3 C 6,9 C
19.06.2010 18:17 12,8 C 14,8 C 14,4 C 61 % 1008 hPa 0,0 l/m 5,2 m/s (3 Bft) W45 270 0 min 20,5 klux 5,5 C 7,3 C
19.06.2010 18:23 12,8 C 14,8 C 14,3 C 62 % 1008 hPa 0,0 l/m 4,0 m/s (3 Bft) W45 260 6 min 53,7 klux 5,7 C 8,8 C
19.06.2010 18:28 12,9 C 15,0 C 14,3 C 61 % 1008 hPa 0,0 l/m 7,0 m/s (4 Bft) W45 275 5 min 38,0 klux 5,6 C 5,7 C
19.06.2010 18:33 13,1 C 16,1 C 14,6 C 61 % 1008 hPa 0,0 l/m 4,4 m/s (3 Bft) W-SW22.5 255 5 min 48,7 klux 5,8 C 8,6 C
19.06.2010 18:38 13,5 C 16,8 C 14,7 C 61 % 1008 hPa 0,0 l/m 4,4 m/s (3 Bft) W22.5 280 5 min 56,4 klux 6,1 C 9,0 C
19.06.2010 18:43 13,8 C 17,8 C 14,8 C 61 % 1008 hPa 0,0 l/m 5,6 m/s (4 Bft) W45 265 5 min 51,7 klux 6,4 C 8,1 C
19.06.2010 18:48 13,9 C 18,1 C 14,6 C 59 % 1008 hPa 0,0 l/m 5,9 m/s (4 Bft) W22.5 275 5 min 51,1 klux 6,0 C 8,0 C
19.06.2010 18:53 14,2 C 18,7 C 14,6 C 59 % 1008 hPa 0,0 l/m 6,5 m/s (4 Bft) W45 270 5 min 48,3 klux 6,3 C 7,9 C
19.06.2010 18:57 14,0 C 18,9 C 14,5 C 59 % 1008 hPa 0,0 l/m 7,0 m/s (4 Bft) W22.5 280 4 min 47,3 klux 6,1 C 7,2 C
19.06.2010 19:02 13,9 C 18,7 C 14,3 C 58 % 1008 hPa 0,0 l/m 7,8 m/s (4 Bft) W-NW22.5 285 5 min 44,9 klux 5,8 C 6,5 C
19.06.2010 19:07 14,4 C 18,9 C 14,3 C 58 % 1008 hPa 0,0 l/m 7,3 m/s (4 Bft) W22.5 270 5 min 44,4 klux 6,2 C 7,6 C
19.06.2010 19:13 15,5 C 18,9 C 14,2 C 54 % 1008 hPa 0,0 l/m 6,6 m/s (4 Bft) W45 275 6 min 42,7 klux 6,2 C 9,5 C
19.06.2010 19:18 16,2 C 19,0 C 14,3 C 53 % 1008 hPa 0,0 l/m 7,6 m/s (4 Bft) W-NW45 285 5 min 39,6 klux 6,6 C 9,8 C
19.06.2010 19:23 16,2 C 18,8 C 13,8 C 53 % 1008 hPa 0,0 l/m 7,8 m/s (4 Bft) W45 270 5 min 40,0 klux 6,6 C 9,7 C
19.06.2010 19:28 15,8 C 18,5 C 13,7 C 54 % 1008 hPa 0,0 l/m 7,6 m/s (4 Bft) W22.5 270 5 min 36,2 klux 6,5 C 9,3 C
19.06.2010 19:33 15,4 C 18,5 C 13,5 C 54 % 1008 hPa 0,0 l/m 7,3 m/s (4 Bft) W22.5 270 5 min 36,2 klux 6,1 C 8,9 C
19.06.2010 19:38 15,5 C 18,1 C 13,6 C 55 % 1008 hPa 0,0 l/m 7,4 m/s (4 Bft) W45 275 5 min 33,2 klux 6,5 C 8,9 C
19.06.2010 19:42 15,0 C 17,7 C 13,5 C 57 % 1008 hPa 0,0 l/m 5,5 m/s (3 Bft) W22.5 275 4 min 30,0 klux 6,6 C 9,8 C
19.06.2010 19:47 15,1 C 17,3 C 13,4 C 57 % 1008 hPa 0,0 l/m 7,4 m/s (4 Bft) W22.5 270 5 min 29,2 klux 6,6 C 8,4 C
19.06.2010 19:52 14,9 C 16,8 C 13,4 C 58 % 1008 hPa 0,0 l/m 6,9 m/s (4 Bft) W-NW45 290 0 min 11,6 klux 6,7 C 8,5 C
19.06.2010 19:58 13,1 C 15,9 C 13,0 C 63 % 1008 hPa 0,0 l/m 7,1 m/s (4 Bft) W22.5 275 0 min 9,4 klux 6,2 C 5,9 C
19.06.2010 20:03 12,5 C 15,6 C 13,3 C 65 % 1008 hPa 0,0 l/m 4,7 m/s (3 Bft) W-NW45 285 0 min 8,80 klux 6,1 C 7,5 C
19.06.2010 20:08 12,0 C 15,0 C 13,1 C 67 % 1008 hPa 0,0 l/m 3,7 m/s (3 Bft) W22.5 270 0 min 8,55 klux 6,1 C 8,3 C
19.06.2010 20:13 11,8 C 14,4 C 12,8 C 65 % 1008 hPa 0,0 l/m 6,4 m/s (4 Bft) W22.5 280 0 min 7,81 klux 5,4 C 4,7 C
19.06.2010 20:18 11,6 C 14,0 C 12,7 C 66 % 1008 hPa 0,0 l/m 5,6 m/s (4 Bft) W22.5 275 0 min 7,14 klux 5,5 C 5,4 C
19.06.2010 20:23 11,6 C 13,8 C 12,7 C 65 % 1008 hPa 0,0 l/m 5,1 m/s (3 Bft) W22.5 275 0 min 7,03 klux 5,2 C 5,9 C
19.06.2010 20:28 11,9 C 13,5 C 12,7 C 65 % 1008 hPa 0,0 l/m 4,1 m/s (3 Bft) W45 260 0 min 8,81 klux 5,5 C 7,6 C
19.06.2010 20:32 12,5 C 13,5 C 12,9 C 64 % 1008 hPa 0,0 l/m 3,0 m/s (2 Bft) W22.5 270 4 min 13,9 klux 5,9 C 9,9 C
19.06.2010 20:37 14,0 C 13,5 C 12,8 C 59 % 1008 hPa 0,0 l/m 4,7 m/s (3 Bft) W45 275 5 min 17,3 klux 6,1 C 9,3 C
19.06.2010 20:42 14,4 C 13,6 C 12,8 C 57 % 1008 hPa 0,0 l/m 4,4 m/s (3 Bft) W22.5 260 5 min 16,0 klux 6,0 C 10,2 C
19.06.2010 20:48 14,9 C 13,4 C 12,7 C 55 % 1008 hPa 0,0 l/m 3,0 m/s (2 Bft) W45 265 6 min 13,7 klux 5,9 C 12,7 C
19.06.2010 20:53 14,0 C 13,4 C 12,6 C 58 % 1008 hPa 0,0 l/m 5,8 m/s (4 Bft) W-NW22.5 295 5 min 9,7 klux 5,9 C 8,2 C
19.06.2010 20:58 13,2 C 13,2 C 12,3 C 60 % 1008 hPa 0,0 l/m 7,9 m/s (4 Bft) W-NW45 285 0 min 5,04 klux 5,6 C 5,4 C
19.06.2010 21:03 12,3 C 13,1 C 12,6 C 63 % 1008 hPa 0,0 l/m 2,0 m/s (2 Bft) W22.5 260 0 min 3,98 klux 5,5 C 11,8 C
19.06.2010 21:08 11,8 C 12,9 C 12,2 C 65 % 1008 hPa 0,0 l/m 3,5 m/s (3 Bft) W22.5 260 0 min 2,69 klux 5,4 C 8,3 C
19.06.2010 21:13 11,4 C 12,8 C 12,1 C 66 % 1008 hPa 0,0 l/m 3,0 m/s (2 Bft) W22.5 265 0 min 1,98 klux 5,3 C 8,7 C
19.06.2010 21:18 11,2 C 12,6 C 12,2 C 66 % 1008 hPa 0,0 l/m 2,9 m/s (2 Bft) W45 275 0 min 1,71 klux 5,1 C 8,8 C
19.06.2010 21:22 11,0 C 12,4 C 11,9 C 68 % 1008 hPa 0,0 l/m 3,3 m/s (2 Bft) W22.5 265 0 min 1,36 klux 5,3 C 7,7 C
19.06.2010 21:27 10,8 C 12,3 C 11,9 C 69 % 1008 hPa 0,0 l/m 3,5 m/s (3 Bft) W45 260 0 min 1,04 klux 5,3 C 7,1 C
19.06.2010 21:32 10,8 C 12,1 C 11,8 C 68 % 1008 hPa 0,0 l/m 3,6 m/s (3 Bft) W22.5 270 0 min 831 lux 5,1 C 7,1 C
19.06.2010 21:38 10,6 C 11,9 C 11,7 C 70 % 1008 hPa 0,0 l/m 2,8 m/s (2 Bft) W-SW22.5 245 0 min 661 lux 5,4 C 8,1 C
19.06.2010 21:43 10,5 C 11,8 C 11,6 C 70 % 1008 hPa 0,0 l/m 1,6 m/s (1 Bft) W-SW22.5 250 0 min 483 lux 5,3 C 10,5 C
19.06.2010 21:48 10,4 C 11,7 C 11,6 C 70 % 1008 hPa 0,0 l/m 2,4 m/s (2 Bft) W-SW22.5 250 0 min 352 lux 5,2 C 8,8 C
19.06.2010 21:47 10,4 C 11,7 C 11,6 C 70 % 1008 hPa 0,0 l/m 2,4 m/s (2 Bft) W-SW22.5 250 0 min 352 lux 5,2 C 8,8 C
19.06.2010 21:52 10,3 C 11,5 C 11,5 C 71 % 1008 hPa 0,0 l/m 1,7 m/s (2 Bft) W-SW 240 0 min 243 lux 5,3 C 10,3 C
19.06.2010 21:57 10,2 C 11,4 C 11,4 C 72 % 1008 hPa 0,0 l/m 3,9 m/s (3 Bft) W22.5 265 0 min 163 lux 5,4 C 5,8 C
19.06.2010 22:02 10,1 C 11,4 C 11,1 C 72 % 1008 hPa 0,0 l/m 2,1 m/s (2 Bft) W-SW22.5 240 0 min 97 lux 5,3 C 9,2 C
19.06.2010 22:07 10,0 C 11,2 C 11,2 C 73 % 1009 hPa 0,0 l/m 2,4 m/s (2 Bft) W22.5 275 0 min 72 lux 5,4 C 8,4 C
19.06.2010 22:12 9,8 C 11,1 C 11,0 C 73 % 1009 hPa 0,0 l/m 0,2 m/s (0 Bft) W22.5 270 0 min 41 lux 5,2 C 9,8 C
19.06.2010 22:18 9,8 C 11,0 C 10,9 C 74 % 1009 hPa 0,0 l/m 2,6 m/s (2 Bft) W-SW22.5 255 0 min 22 lux 5,4 C 7,9 C
19.06.2010 22:23 9,6 C 10,9 C 10,9 C 74 % 1009 hPa 0,0 l/m 0,4 m/s (1 Bft) W 265 0 min 11 lux 5,2 C 9,6 C
19.06.2010 22:28 9,5 C 10,7 C 10,7 C 75 % 1009 hPa 0,0 l/m 0,5 m/s (1 Bft) W 260 0 min 4 lux 5,3 C 9,5 C
19.06.2010 22:33 9,4 C 10,6 C 10,5 C 76 % 1009 hPa 0,0 l/m 0,2 m/s (0 Bft) W22.5 260 0 min 1 lux 5,4 C 9,4 C
19.06.2010 22:38 9,4 C 10,5 C 10,6 C 76 % 1009 hPa 0,0 l/m 2,1 m/s (2 Bft) W-SW22.5 255 0 min 0 lux 5,4 C 8,4 C
19.06.2010 22:43 9,4 C 10,5 C 10,5 C 78 % 1009 hPa 0,0 l/m 2,3 m/s (2 Bft) W-SW22.5 250 0 min 0 lux 5,8 C 7,9 C
19.06.2010 22:48 9,4 C 10,4 C 10,4 C 77 % 1009 hPa 0,0 l/m 0,0 m/s (0 Bft) W-SW 250 0 min 0 lux 5,6 C 9,4 C
19.06.2010 22:53 9,2 C 10,3 C 10,3 C 78 % 1009 hPa 0,0 l/m 1,9 m/s (2 Bft) W22.5 260 0 min 0 lux 5,6 C 9,0 C
19.06.2010 22:58 9,2 C 10,3 C 10,2 C 79 % 1009 hPa 0,0 l/m 2,9 m/s (2 Bft) W-SW22.5 245 0 min 0 lux 5,8 C 6,4 C
19.06.2010 23:03 9,2 C 10,2 C 10,1 C 79 % 1009 hPa 0,0 l/m 2,0 m/s (2 Bft) W 270 0 min 0 lux 5,8 C 8,7 C
19.06.2010 23:08 9,2 C 10,1 C 10,0 C 79 % 1009 hPa 0,0 l/m 2,7 m/s (2 Bft) W22.5 270 0 min 0 lux 5,8 C 7,0 C
19.06.2010 23:13 9,1 C 10,1 C 10,0 C 79 % 1009 hPa 0,0 l/m 2,3 m/s (2 Bft) W22.5 270 0 min 0 lux 5,7 C 7,7 C
19.06.2010 23:18 9,1 C 10,0 C 9,6 C 80 % 1009 hPa 0,0 l/m 3,1 m/s (2 Bft) W22.5 270 0 min 0 lux 5,8 C 5,9 C
19.06.2010 23:23 9,1 C 9,9 C 9,8 C 80 % 1009 hPa 0,0 l/m 3,0 m/s (2 Bft) W-SW22.5 245 0 min 0 lux 5,8 C 6,1 C
19.06.2010 23:28 9,0 C 9,9 C 9,7 C 80 % 1009 hPa 0,0 l/m 2,2 m/s (2 Bft) W22.5 265 0 min 0 lux 5,7 C 7,9 C
19.06.2010 23:33 8,9 C 9,8 C 9,6 C 80 % 1009 hPa 0,0 l/m 2,2 m/s (2 Bft) W22.5 275 0 min 0 lux 5,6 C 7,8 C
19.06.2010 23:38 8,9 C 9,7 C 9,5 C 80 % 1009 hPa 0,0 l/m 3,9 m/s (3 Bft) W22.5 270 0 min 0 lux 5,6 C 4,3 C
19.06.2010 23:43 8,9 C 9,7 C 9,5 C 80 % 1009 hPa 0,0 l/m 1,5 m/s (1 Bft) SW22.5 235 0 min 0 lux 5,6 C 8,9 C
19.06.2010 23:48 8,8 C 9,6 C 9,4 C 80 % 1009 hPa 0,0 l/m 2,0 m/s (2 Bft) W22.5 260 0 min 0 lux 5,5 C 8,2 C
19.06.2010 23:53 8,6 C 9,5 C 9,3 C 81 % 1009 hPa 0,0 l/m 1,6 m/s (2 Bft) W22.5 280 0 min 0 lux 5,5 C 8,6 C
19.06.2010 23:58 8,6 C 9,4 C 9,2 C 81 % 1009 hPa 0,0 l/m 3,7 m/s (3 Bft) W22.5 270 0 min 0 lux 5,5 C 4,2 C
_ Min-Zeit 23:53 23:58 23:58 14:08 10:12 - 00:08 - - - - 13:48 08:02
Minimum _ 8,6 C 9,4 C 9,2 C 45 % 1008 hPa - 0,0 m/s (0 Bft) - - - - 4,6 C 3,9 C
_ Max-Zeit 14:03 14:03 14:03 00:03 00:03 00:03 15:08 - - 13:43 12:42 00:03 13:27
Maximum _ 17,0 C 20,8 C 20,8 C 83 % 1011 hPa 0,0 l/m 10,4 m/s
W-NW (5 Bft)
- - 6 min 141 klux 9,2 C 13,6 C
Durchschnitt _ 11,8 C 13,5 C 13,1 C 68 % 1009 hPa #0,0 l/m 3,5 m/s (3 Bft) W - #4:26 h 23,7 klux 5,9 C 8,8 C